JCSAT-13

Last updated on Thu Oct 30 2025 00:02:49 GMT+0000 (Coordinated Universal Time)

1 38331U 12023A 25302.51810648 -.00000346 00000+0 00000+0 0 9993 2 38331 0.0398 74.9270 0002485 148.9635 124.7597 1.00272112 49222
UTC large
Height (km)
Speed (km/s)
/
Latitude / Longitude
Inclination (degrees)
Orbital Period (minutes)
Azimuth
Elevation
Range (km)
Doppler Factor

Next 0 passes for location: London (51.5072 / 0.1276)

Sorry there are no passes over London.